Regional Weather Roundup
Issued by NWS Charleston, SC

Current Version | Previous Version | Text Only | Print | Product List | Glossary Off
Versions: 1 2 3 4 5 6 7 8 9 10 11 12 13 14 15 16 17 18 19 20 21 22 23 24 25 26 27 28 29 30 31 32 33 34 35 36 37 38 39 40 41 42 43 44 45 46 47 48 49 50

000
ASUS42 KCHS 292028
RWRCHS

REGIONAL WEATHER ROUNDUP
NATIONAL WEATHER SERVICE CHARLESTON SC
400 PM EDT MON AUG 29 2016

NOTE: "FAIR" INDICATES FEW OR NO CLOUDS BELOW 12,000 FEET WITH NO
SIGNIFICANT WEATHER AND/OR OBSTRUCTIONS TO VISIBILITY.

NOT ALL STATIONS ARE QUALITY CONTROLLED. USE DATA WITH CAUTION...
ESPECIALLY DEWPOINT OBSERVATIONS.

SCZ027-030-031-034>040-042>050-292100-
...SOUTHEAST SOUTH CAROLINA...

CITY           SKY/WX    TMP DP  RH WIND       PRES   REMARKS
N CHARLESTON   PTSUNNY   86  73  65 NE16      30.04S THUNDER HX  93
WATERFRONT PRK   N/A     84  77  79 NE10      30.02F HX  94
MOUNT PLEASANT MOCLDY    79  73  83 N7        30.05R
JOHNS ISLAND   MOCLDY    84  75  74 E14       30.04R HX  92
PINOPOLIS        N/A     84  75  74 CALM      29.98F HX  92
MONCKS CORNER  FAIR      84  72  65 E5        30.03F THUNDER
SUMMERVILLE    NOT AVBL
BEAUFORT MCAS  TSTM      80  75  84 E8        30.03F
BEAUFORT ARPT  CLOUDY    82  73  74 N10       30.02S THUNDER
HILTON HEAD IS NOT AVBL
WALTERBORO     CLOUDY    82  82 100 SE5       30.03F HX  97
ALLENDALE      FAIR      91  70  49 CALM      30.01F HX  97

...SOUTHERN MIDLANDS AND PEE DEE...

CITY           SKY/WX    TMP DP  RH WIND       PRES   REMARKS
GEORGETOWN     CLOUDY    73  72  94 NE5       30.07S
KINGSTREE      LGT RAIN  79  72  78 E6        30.05F
ORANGEBURG     PTSUNNY   91  69  48 E8        30.03F HX  96
BARNWELL       NOT AVBL
AIKEN          FAIR      88  70  55 N5        30.08F HX  92
MANNING        FAIR      88  72  58 NE7       30.04F HX  94
COLUMBIA       CLOUDY    81  76  84 CALM      30.05F
SUMTER         PTSUNNY   85  72  63 NE10      30.03F HX  91
FLORENCE       CLOUDY    89  68  49 E10       30.06F HX  93
MYRTLE BEACH   PTSUNNY   79  68  69 CALM      30.08F
N MYRTLE BEACH CLOUDY    81  71  71 NE6       30.06S

$$

GAZ063-065-086>088-099>101-113>116-118-119-134>141-150-292100-
...SOUTHEAST GEORGIA...

CITY           SKY/WX    TMP DP  RH WIND       PRES   REMARKS
SAVANNAH ARPT  PTSUNNY   84  73  69 SE15      30.02F THUNDER HX  90
HUNTER AAF     LGT RAIN  82  77  83 NE8G17    30.00F HX  91
FORT STEWART   PTSUNNY   84  75  74 SE3       29.98F THUNDER HX  92
STATESBORO     SUNNY     93  70  47 NE7       30.01F HX  98
SYLVANIA       NOT AVBL
CLAXTON        FAIR      91  71  51 NE6       30.00F HX  98

...CSRA...CENTRAL AND FAR SOUTHEAST GEORGIA...

CITY           SKY/WX    TMP DP  RH WIND       PRES   REMARKS
THOMSON        NOT AVBL
AUGUSTA-BUSH   MOSUNNY   95  69  42 N15G21    30.01F HX 100
AUGUSTA-DANIEL MOSUNNY   94  69  44 N10       30.04F HX  99
SWAINSBORO     FAIR      95  66  38 NE9       30.01F HX  98
VIDALIA        SUNNY     95  73  49 E13       30.00F HX 105
EASTMAN        FAIR      96  44  17 E12       30.01F HX  91
HAZLEHURST     RAIN      89  74  60 SE7G17    29.99S HX  97
ALMA           LGT RAIN  81  74  79 E5        30.00F
WAYCROSS         N/A     96  75  50 E13G18    29.97F HX 107
JESUP          FAIR      88  79  74 E5        30.00F HX 102
BAXLEY         PTSUNNY   90  79  70 E13       29.99F HX 105
BRUNSWICK      MOSUNNY   90  73  58 E15       30.00F HX  98
SAINT SIMONS   SUNNY     89  74  60 E13       30.00F HX  98

$$

SCZ027-028-034-036>038-045-046-048>050-GAZ119-141-292100-
...LAKE AND SUPPLEMENTAL COASTAL OBSERVATIONS...

STATION/POSITION TIME  TEMP    WIND        PRES    WAVE   SWELL
                       AIR SEA DIR/SP/G            HT/PER HT/PER/DIR
                 (UTC) (F)     (DEG/KT/KT) (MB)    (FT/S) (FT/S/D)
WINYAH BAY       1900   83      70/  5     1017.0S
LAKE MURRAY      1900   86      70/  5/  9 1017.6F
ACE BASIN NERRS  1900   85     100/  2     1017.0
FORT PULASKI     2000   83 85   70/ 12/ 13 1017.1F
SAPELO ISLAND    2000   89      80/ 10     1016.0F

$$

ANZ835-935-AMZ111-154-330-350-352-354-370-450-454-472-292100-
...C-MAN AND BUOY OBSERVATIONS...

STATION/POSITION TIME  TEMP    WIND        PRES    WAVE   SWELL
                       AIR SEA DIR/SP/G            HT/PER HT/PER/DIR
                 (UTC) (F)     (DEG/KT/KT) (MB)    (FT/S) (FT/S/D)
BUOY 41004       1950   84 85   50/ 10/ 12 1016.5F   3/13   3/110/13
BUOY 41008       1950   84 85   80/ 12/ 14 1016.1F   3/14   3/110/14
FOLLY BEACH CMAN 2000   83      80/ 15/ 16 1017.2F
CAPERS NEARSHORE 2008   82 84   70/ 14/ 17 1017.0F
FRIPP NEARSHORE  2008   83 86   90/ 10/ 14 1016.1F


STATION/POSITION TIME  TEMP    WIND        PRES    WAVE   SWELL
                       AIR SEA DIR/SP/G            HT/PER HT/PER/DIR
                 (UTC) (F)     (DEG/KT/KT) (MB)    (FT/S) (FT/S/D)
5E ST. MARYS GA  2001      85                N/A     4/13   2/100/13
FRYING PAN BUOY  2000   82 85   30/ 16/ 23 1016.5F
BUOY 41025       1950   82 84   30/ 19/ 25 1016.3F   6/ 8   5/ 90/ 8
CAPE LOOKOUT NC  2000   83      40/ 15/ 17 1016.6F
BUOY 41002       1950   83 85  280/ 10/ 12 1015.5F   4/13   5/ 90/13
BUOY 41010       NOT AVBL
ST AUGUSTINE FL  2000   81 85   40/ 12/ 16 1015.5F


$$




USA.gov is the U.S. government's official web portal to all federal, state and local government web resources and services.